Year,Month,Day,Hour,Minute,Value (Times are PST for temperature in C)
2006,11,25,00,00,1.70
2006,11,25,00,01,1.70
2006,11,25,00,02,1.80
2006,11,25,00,03,1.80
2006,11,25,00,04,1.80
2006,11,25,00,05,1.80
2006,11,25,00,06,1.70
2006,11,25,00,07,1.80
2006,11,25,00,08,1.80
2006,11,25,00,09,1.80
2006,11,25,00,10,1.80
2006,11,25,00,11,1.80
2006,11,25,00,12,1.80
2006,11,25,00,13,1.80
2006,11,25,00,14,1.80
2006,11,25,00,15,1.80
2006,11,25,00,16,1.80
2006,11,25,00,17,1.80
2006,11,25,00,18,1.80
2006,11,25,00,19,1.80
2006,11,25,00,20,1.80
2006,11,25,00,21,1.80
2006,11,25,00,22,1.80
2006,11,25,00,23,1.80
2006,11,25,00,24,1.80
2006,11,25,00,25,1.80
2006,11,25,00,26,1.90
2006,11,25,00,27,1.90
2006,11,25,00,28,1.90
2006,11,25,00,29,1.90
2006,11,25,00,30,1.90
2006,11,25,00,31,1.90
2006,11,25,00,32,1.90
2006,11,25,00,33,1.90
2006,11,25,00,34,2.00
2006,11,25,00,35,1.90
2006,11,25,00,36,1.90
2006,11,25,00,37,1.90
2006,11,25,00,38,1.80
2006,11,25,00,39,1.80
2006,11,25,00,40,1.80
2006,11,25,00,41,1.80
2006,11,25,00,42,1.80
2006,11,25,00,43,1.80
2006,11,25,00,44,1.70
2006,11,25,00,45,1.70
2006,11,25,00,46,1.70
2006,11,25,00,47,1.70
2006,11,25,00,48,1.70
2006,11,25,00,49,1.70
2006,11,25,00,50,1.70
2006,11,25,00,51,1.70
2006,11,25,00,52,1.70
2006,11,25,00,53,1.80
2006,11,25,00,54,1.80
2006,11,25,00,55,1.80
2006,11,25,00,56,1.80
2006,11,25,00,57,1.80
2006,11,25,00,58,1.80
2006,11,25,00,59,1.80
2006,11,25,01,00,1.80
2006,11,25,01,01,1.90
2006,11,25,01,02,1.90
2006,11,25,01,03,1.90
2006,11,25,01,04,2.00
2006,11,25,01,05,2.00
2006,11,25,01,06,2.00
2006,11,25,01,07,2.00
2006,11,25,01,08,2.00
2006,11,25,01,09,2.00
2006,11,25,01,10,2.10
2006,11,25,01,11,2.10
2006,11,25,01,12,2.10
2006,11,25,01,13,2.10
2006,11,25,01,14,2.10
2006,11,25,01,15,2.10
2006,11,25,01,16,2.10
2006,11,25,01,17,2.10
2006,11,25,01,18,2.10
2006,11,25,01,19,2.10
2006,11,25,01,20,2.10
2006,11,25,01,21,2.10
2006,11,25,01,22,2.10
2006,11,25,01,23,2.20
2006,11,25,01,24,2.20
2006,11,25,01,25,2.20
2006,11,25,01,26,2.20
2006,11,25,01,27,2.20
2006,11,25,01,28,2.20
2006,11,25,01,29,2.20
2006,11,25,01,30,2.20
2006,11,25,01,31,2.20
2006,11,25,01,32,2.20
2006,11,25,01,33,2.20
2006,11,25,01,34,2.20
2006,11,25,01,35,2.20
2006,11,25,01,36,2.20
2006,11,25,01,37,2.20
2006,11,25,01,38,2.10
2006,11,25,01,39,2.10
2006,11,25,01,40,2.10
2006,11,25,01,41,2.10
2006,11,25,01,42,2.10
2006,11,25,01,43,2.10
2006,11,25,01,44,2.10
2006,11,25,01,45,2.10
2006,11,25,01,46,2.10
2006,11,25,01,47,2.10
2006,11,25,01,48,2.00
2006,11,25,01,49,2.00
2006,11,25,01,50,2.00
2006,11,25,01,51,2.00
2006,11,25,01,52,2.00
2006,11,25,01,53,2.00
2006,11,25,01,54,1.90
2006,11,25,01,55,1.90
2006,11,25,01,56,1.90
2006,11,25,01,57,1.90
2006,11,25,01,58,1.80
2006,11,25,01,59,1.80
2006,11,25,02,00,1.80
2006,11,25,02,01,1.80
2006,11,25,02,02,1.80
2006,11,25,02,03,1.80
2006,11,25,02,04,1.80
2006,11,25,02,05,1.80
2006,11,25,02,06,1.80
2006,11,25,02,07,1.80
2006,11,25,02,08,1.80
2006,11,25,02,09,1.80
2006,11,25,02,10,1.80
2006,11,25,02,11,1.80
2006,11,25,02,12,1.80
2006,11,25,02,13,1.80
2006,11,25,02,14,1.80
2006,11,25,02,15,1.80
2006,11,25,02,16,1.80
2006,11,25,02,17,1.80
2006,11,25,02,18,1.70
2006,11,25,02,19,1.70
2006,11,25,02,20,1.70
2006,11,25,02,21,1.70
2006,11,25,02,22,1.70
2006,11,25,02,23,1.70
2006,11,25,02,24,1.70
2006,11,25,02,25,1.70
2006,11,25,02,26,1.70
2006,11,25,02,27,1.70
2006,11,25,02,28,1.70
2006,11,25,02,29,1.70
2006,11,25,02,30,1.70
2006,11,25,02,31,1.70
2006,11,25,02,32,1.70
2006,11,25,02,33,1.70
2006,11,25,02,34,1.70
2006,11,25,02,35,1.60
2006,11,25,02,36,1.60
2006,11,25,02,37,1.60
2006,11,25,02,38,1.60
2006,11,25,02,39,1.60
2006,11,25,02,40,1.60
2006,11,25,02,41,1.60
2006,11,25,02,42,1.60
2006,11,25,02,43,1.60
2006,11,25,02,44,1.60
2006,11,25,02,45,1.60
2006,11,25,02,46,1.60
2006,11,25,02,47,1.60
2006,11,25,02,48,1.60
2006,11,25,02,49,1.60
2006,11,25,02,50,1.60
2006,11,25,02,51,1.60
2006,11,25,02,52,1.60
2006,11,25,02,53,1.60
2006,11,25,02,54,1.60
2006,11,25,02,55,1.60
2006,11,25,02,56,1.60
2006,11,25,02,57,1.60
2006,11,25,02,58,1.60
2006,11,25,02,59,1.60
2006,11,25,03,00,1.60
2006,11,25,03,01,1.60
2006,11,25,03,02,1.60
2006,11,25,03,03,1.60
2006,11,25,03,04,1.70
2006,11,25,03,05,1.70
2006,11,25,03,06,1.70
2006,11,25,03,07,1.70
2006,11,25,03,08,1.70
2006,11,25,03,09,1.70
2006,11,25,03,10,1.70
2006,11,25,03,11,1.80
2006,11,25,03,12,1.80
2006,11,25,03,13,1.80
2006,11,25,03,14,1.80
2006,11,25,03,15,1.80
2006,11,25,03,16,1.80
2006,11,25,03,17,1.80
2006,11,25,03,18,1.80
2006,11,25,03,19,1.80
2006,11,25,03,20,1.80
2006,11,25,03,21,1.80
2006,11,25,03,22,1.80
2006,11,25,03,23,1.80
2006,11,25,03,24,1.80
2006,11,25,03,25,1.80
2006,11,25,03,26,1.80
2006,11,25,03,27,1.80
2006,11,25,03,28,1.80
2006,11,25,03,29,1.80
2006,11,25,03,30,1.80
2006,11,25,03,31,1.80
2006,11,25,03,32,1.80
2006,11,25,03,33,1.80
2006,11,25,03,34,1.80
2006,11,25,03,35,1.70
2006,11,25,03,36,1.70
2006,11,25,03,37,1.70
2006,11,25,03,38,1.70
2006,11,25,03,39,1.70
2006,11,25,03,40,1.60
2006,11,25,03,41,1.60
2006,11,25,03,42,1.60
2006,11,25,03,43,1.60
2006,11,25,03,44,1.60
2006,11,25,03,45,1.50
2006,11,25,03,46,1.50
2006,11,25,03,47,1.50
2006,11,25,03,48,1.50
2006,11,25,03,49,1.40
2006,11,25,03,50,1.40
2006,11,25,03,51,1.40
2006,11,25,03,52,1.40
2006,11,25,03,53,1.40
2006,11,25,03,54,1.40
2006,11,25,03,55,1.30
2006,11,25,03,56,1.30
2006,11,25,03,57,1.30
2006,11,25,03,58,1.30
2006,11,25,03,59,1.30
2006,11,25,04,00,1.30
2006,11,25,04,01,1.30
2006,11,25,04,02,1.30
2006,11,25,04,03,1.30
2006,11,25,04,04,1.30
2006,11,25,04,05,1.30
2006,11,25,04,06,1.30
2006,11,25,04,07,1.30
2006,11,25,04,08,1.30
2006,11,25,04,09,1.30
2006,11,25,04,10,1.30
2006,11,25,04,11,1.20
2006,11,25,04,12,1.20
2006,11,25,04,13,1.20
2006,11,25,04,14,1.20
2006,11,25,04,15,1.20
2006,11,25,04,16,1.20
2006,11,25,04,17,1.20
2006,11,25,04,18,1.20
2006,11,25,04,19,1.20
2006,11,25,04,20,1.20
2006,11,25,04,21,1.10
2006,11,25,04,22,1.10
2006,11,25,04,23,1.10
2006,11,25,04,24,1.10
2006,11,25,04,25,1.10
2006,11,25,04,26,1.10
2006,11,25,04,27,1.10
2006,11,25,04,28,1.10
2006,11,25,04,29,1.10
2006,11,25,04,30,1.10
2006,11,25,04,31,1.10
2006,11,25,04,32,1.10
2006,11,25,04,33,1.10
2006,11,25,04,34,1.10
2006,11,25,04,35,1.10
2006,11,25,04,36,1.10
2006,11,25,04,37,1.10
2006,11,25,04,38,1.10
2006,11,25,04,39,1.10
2006,11,25,04,40,1.10
2006,11,25,04,41,1.10
2006,11,25,04,42,1.10
2006,11,25,04,43,1.00
2006,11,25,04,44,1.00
2006,11,25,04,45,1.00
2006,11,25,04,46,1.00
2006,11,25,04,47,0.90
2006,11,25,04,48,0.90
2006,11,25,04,49,0.80
2006,11,25,04,50,0.80
2006,11,25,04,51,0.80
2006,11,25,04,52,0.80
2006,11,25,04,53,0.80
2006,11,25,04,54,0.80
2006,11,25,04,55,0.90
2006,11,25,04,56,0.90
2006,11,25,04,57,0.90
2006,11,25,04,58,0.90
2006,11,25,04,59,1.00
2006,11,25,05,00,1.00
2006,11,25,05,01,1.00
2006,11,25,05,02,1.10
2006,11,25,05,03,1.10
2006,11,25,05,04,1.10
2006,11,25,05,05,1.10
2006,11,25,05,06,1.10
2006,11,25,05,07,1.10
2006,11,25,05,08,1.10
2006,11,25,05,09,1.10
2006,11,25,05,10,1.10
2006,11,25,05,11,1.10
2006,11,25,05,12,1.10
2006,11,25,05,13,1.10
2006,11,25,05,14,1.20
2006,11,25,05,15,1.20
2006,11,25,05,16,1.20
2006,11,25,05,17,1.20
2006,11,25,05,18,1.20
2006,11,25,05,19,1.30
2006,11,25,05,20,1.30
2006,11,25,05,21,1.20
2006,11,25,05,22,1.20
2006,11,25,05,23,1.20
2006,11,25,05,24,1.20
2006,11,25,05,25,1.10
2006,11,25,05,26,1.10
2006,11,25,05,27,1.10
2006,11,25,05,28,1.10
2006,11,25,05,29,1.00
2006,11,25,05,30,0.90
2006,11,25,05,31,0.90
2006,11,25,05,32,0.80
2006,11,25,05,33,0.70
2006,11,25,05,34,0.70
2006,11,25,05,35,0.60
2006,11,25,05,36,0.60
2006,11,25,05,37,0.50
2006,11,25,05,38,0.50
2006,11,25,05,39,0.50
2006,11,25,05,40,0.40
2006,11,25,05,41,0.40
2006,11,25,05,42,0.40
2006,11,25,05,43,0.30
2006,11,25,05,44,0.30
2006,11,25,05,45,0.30
2006,11,25,05,46,0.30
2006,11,25,05,47,0.30
2006,11,25,05,48,0.30
2006,11,25,05,49,0.30
2006,11,25,05,50,0.20
2006,11,25,05,51,0.20
2006,11,25,05,52,0.30
2006,11,25,05,53,0.30
2006,11,25,05,54,0.30
2006,11,25,05,55,0.30
2006,11,25,05,56,0.20
2006,11,25,05,57,0.10
2006,11,25,05,58,0.10
2006,11,25,05,59,0.10
2006,11,25,06,00,0.10
2006,11,25,06,01,0.10
2006,11,25,06,02,0.10
2006,11,25,06,03,0.10
2006,11,25,06,04,0.10
2006,11,25,06,05,0.10
2006,11,25,06,06,0.10
2006,11,25,06,07,0.10
2006,11,25,06,08,0.10
2006,11,25,06,09,0.10
2006,11,25,06,10,0.10
2006,11,25,06,11,0.10
2006,11,25,06,12,0.10
2006,11,25,06,13,0.10
2006,11,25,06,14,0.10
2006,11,25,06,15,0.10
2006,11,25,06,16,0.10
2006,11,25,06,17,0.10
2006,11,25,06,18,0.10
2006,11,25,06,19,0.10
2006,11,25,06,20,0.10
2006,11,25,06,21,0.10
2006,11,25,06,22,0.10
2006,11,25,06,23,0.10
2006,11,25,06,24,0.10
2006,11,25,06,25,0.00
2006,11,25,06,26,-0.10
2006,11,25,06,27,-0.10
2006,11,25,06,28,-0.10
2006,11,25,06,29,-0.10
2006,11,25,06,30,-0.10
2006,11,25,06,31,-0.20
2006,11,25,06,32,-0.20
2006,11,25,06,33,-0.20
2006,11,25,06,34,-0.30
2006,11,25,06,35,-0.30
2006,11,25,06,36,-0.40
2006,11,25,06,37,-0.40
2006,11,25,06,38,-0.40
2006,11,25,06,39,-0.40
2006,11,25,06,40,-0.40
2006,11,25,06,41,-0.40
2006,11,25,06,42,-0.40
2006,11,25,06,43,-0.40
2006,11,25,06,44,-0.40
2006,11,25,06,45,-0.40
2006,11,25,06,46,-0.40
2006,11,25,06,47,-0.40
2006,11,25,06,48,-0.40
2006,11,25,06,49,-0.40
2006,11,25,06,50,-0.40
2006,11,25,06,51,-0.40
2006,11,25,06,52,-0.40
2006,11,25,06,53,-0.40
2006,11,25,06,54,-0.40
2006,11,25,06,55,-0.40
2006,11,25,06,56,-0.40
2006,11,25,06,57,-0.40
2006,11,25,06,58,-0.50
2006,11,25,06,59,-0.60
2006,11,25,07,00,-0.40
2006,11,25,07,01,-0.40
2006,11,25,07,02,-0.40
2006,11,25,07,03,-0.40
2006,11,25,07,04,-0.40
2006,11,25,07,05,-0.40
2006,11,25,07,06,-0.50
2006,11,25,07,07,-0.60
2006,11,25,07,08,-0.60
2006,11,25,07,09,-0.60
2006,11,25,07,10,-0.60
2006,11,25,07,11,-0.60
2006,11,25,07,12,-0.60
2006,11,25,07,13,-0.60
2006,11,25,07,14,-0.60
2006,11,25,07,15,-0.60
2006,11,25,07,16,-0.50
2006,11,25,07,17,-0.40
2006,11,25,07,18,-0.40
2006,11,25,07,19,-0.40
2006,11,25,07,20,-0.40
2006,11,25,07,21,-0.40
2006,11,25,07,22,-0.40
2006,11,25,07,23,-0.40
2006,11,25,07,24,-0.40
2006,11,25,07,25,-0.50
2006,11,25,07,26,-0.50
2006,11,25,07,27,-0.60
2006,11,25,07,28,-0.60
2006,11,25,07,29,-0.60
2006,11,25,07,30,-0.60
2006,11,25,07,31,-0.60
2006,11,25,07,32,-0.60
2006,11,25,07,33,-0.60
2006,11,25,07,34,-0.60
2006,11,25,07,35,-0.60
2006,11,25,07,36,-0.60
2006,11,25,07,37,-0.70
2006,11,25,07,38,-0.70
2006,11,25,07,39,-0.70
2006,11,25,07,40,-0.70
2006,11,25,07,41,-0.80
2006,11,25,07,42,-0.80
2006,11,25,07,43,-0.80
2006,11,25,07,44,-0.80
2006,11,25,07,45,-0.80
2006,11,25,07,46,-0.70
2006,11,25,07,47,-0.70
2006,11,25,07,48,-0.70
2006,11,25,07,49,-0.70
2006,11,25,07,50,-0.70
2006,11,25,07,51,-0.70
2006,11,25,07,52,-0.70
2006,11,25,07,53,-0.70
2006,11,25,07,54,-0.70
2006,11,25,07,55,-0.60
2006,11,25,07,56,-0.60
2006,11,25,07,57,-0.50
2006,11,25,07,58,-0.40
2006,11,25,07,59,-0.40
2006,11,25,08,00,-0.40
2006,11,25,08,01,-0.40
2006,11,25,08,02,-0.40
2006,11,25,08,03,-0.40
2006,11,25,08,04,-0.40
2006,11,25,08,05,-0.30
2006,11,25,08,06,-0.30
2006,11,25,08,07,-0.20
2006,11,25,08,08,-0.20
2006,11,25,08,09,-0.20
2006,11,25,08,10,-0.30
2006,11,25,08,11,-0.40
2006,11,25,08,12,-0.60
2006,11,25,08,13,-0.60
2006,11,25,08,14,-0.60
2006,11,25,08,15,-0.60
2006,11,25,08,16,-0.60
2006,11,25,08,17,-0.50
2006,11,25,08,18,-0.40
2006,11,25,08,19,-0.40
2006,11,25,08,20,-0.40
2006,11,25,08,21,-0.40
2006,11,25,08,22,-0.40
2006,11,25,08,23,-0.40
2006,11,25,08,24,-0.40
2006,11,25,08,25,-0.40
2006,11,25,08,26,-0.40
2006,11,25,08,27,-0.40
2006,11,25,08,28,-0.40
2006,11,25,08,29,-0.40
2006,11,25,08,30,-0.40
2006,11,25,08,31,-0.30
2006,11,25,08,32,-0.30
2006,11,25,08,33,-0.20
2006,11,25,08,34,-0.20
2006,11,25,08,35,-0.20
2006,11,25,08,36,-0.10
2006,11,25,08,37,-0.10
2006,11,25,08,38,0.00
2006,11,25,08,39,0.10
2006,11,25,08,40,0.10
2006,11,25,08,41,0.20
2006,11,25,08,42,0.30
2006,11,25,08,43,0.40
2006,11,25,08,44,0.40
2006,11,25,08,45,0.40
2006,11,25,08,46,0.50
2006,11,25,08,47,0.50
2006,11,25,08,48,0.50
2006,11,25,08,49,0.50
2006,11,25,08,50,0.60
2006,11,25,08,51,0.60
2006,11,25,08,52,0.70
2006,11,25,08,53,0.80
2006,11,25,08,54,0.80
2006,11,25,08,55,0.80
2006,11,25,08,56,0.80
2006,11,25,08,57,0.80
2006,11,25,08,58,0.80
2006,11,25,08,59,0.80
2006,11,25,09,00,0.80
2006,11,25,09,01,0.80
2006,11,25,09,02,0.90
2006,11,25,09,03,0.90
2006,11,25,09,04,1.00
2006,11,25,09,05,1.10
2006,11,25,09,06,1.20
2006,11,25,09,07,1.30
2006,11,25,09,08,1.30
2006,11,25,09,09,1.40
2006,11,25,09,10,1.50
2006,11,25,09,11,1.50
2006,11,25,09,12,1.60
2006,11,25,09,13,1.60
2006,11,25,09,14,1.70
2006,11,25,09,15,1.70
2006,11,25,09,16,1.60
2006,11,25,09,17,1.60
2006,11,25,09,18,1.60
2006,11,25,09,19,1.60
2006,11,25,09,20,1.50
2006,11,25,09,21,1.50
2006,11,25,09,22,1.50
2006,11,25,09,23,1.50
2006,11,25,09,24,1.50
2006,11,25,09,25,1.50
2006,11,25,09,26,1.40
2006,11,25,09,27,1.40
2006,11,25,09,28,1.40
2006,11,25,09,29,1.40
2006,11,25,09,30,1.40
2006,11,25,09,31,1.50
2006,11,25,09,32,1.50
2006,11,25,09,33,1.50
2006,11,25,09,34,1.60
2006,11,25,09,35,1.70
2006,11,25,09,36,1.70
2006,11,25,09,37,1.70
2006,11,25,09,38,1.80
2006,11,25,09,39,1.80
2006,11,25,09,40,1.80
2006,11,25,09,41,1.80
2006,11,25,09,42,1.80
2006,11,25,09,43,1.80
2006,11,25,09,44,1.80
2006,11,25,09,45,1.80
2006,11,25,09,46,1.80
2006,11,25,09,47,1.80
2006,11,25,09,48,1.80
2006,11,25,09,49,1.80
2006,11,25,09,50,1.80
2006,11,25,09,51,1.90
2006,11,25,09,52,1.90
2006,11,25,09,53,1.90
2006,11,25,09,54,1.90
2006,11,25,09,55,1.90
2006,11,25,09,56,2.00
2006,11,25,09,57,2.00
2006,11,25,09,58,2.00
2006,11,25,09,59,2.10
2006,11,25,10,00,2.00
2006,11,25,10,01,2.00
2006,11,25,10,02,2.00
2006,11,25,10,03,2.10
2006,11,25,10,04,2.10
2006,11,25,10,05,2.10
2006,11,25,10,06,2.10
2006,11,25,10,07,2.10
2006,11,25,10,08,2.10
2006,11,25,10,09,2.10
2006,11,25,10,10,2.10
2006,11,25,10,11,2.20
2006,11,25,10,12,2.20
2006,11,25,10,13,2.20
2006,11,25,10,14,2.20
2006,11,25,10,15,2.20
2006,11,25,10,16,2.20
2006,11,25,10,17,2.30
2006,11,25,10,18,2.30
2006,11,25,10,19,2.40
2006,11,25,10,20,2.50
2006,11,25,10,21,2.50
2006,11,25,10,22,2.50
2006,11,25,10,23,2.50
2006,11,25,10,24,2.60
2006,11,25,10,25,2.60
2006,11,25,10,26,2.60
2006,11,25,10,27,2.60
2006,11,25,10,28,2.60
2006,11,25,10,29,2.70
2006,11,25,10,30,2.70
2006,11,25,10,31,2.70
2006,11,25,10,32,2.70
2006,11,25,10,33,2.70
2006,11,25,10,34,2.70
2006,11,25,10,35,2.70
2006,11,25,10,36,2.70
2006,11,25,10,37,2.70
2006,11,25,10,38,2.80
2006,11,25,10,39,2.80
2006,11,25,10,40,2.80
2006,11,25,10,41,2.80
2006,11,25,10,42,2.80
2006,11,25,10,43,2.90
2006,11,25,10,44,2.90
2006,11,25,10,45,2.90
2006,11,25,10,46,2.90
2006,11,25,10,47,2.90
2006,11,25,10,48,2.90
2006,11,25,10,49,2.90
2006,11,25,10,50,2.90
2006,11,25,10,51,3.00
2006,11,25,10,52,3.10
2006,11,25,10,53,3.10
2006,11,25,10,54,3.10
2006,11,25,10,55,3.10
2006,11,25,10,56,3.10
2006,11,25,10,57,3.10
2006,11,25,10,58,3.00
2006,11,25,10,59,2.90
2006,11,25,11,00,2.90
2006,11,25,11,01,2.90
2006,11,25,11,02,2.90
2006,11,25,11,03,3.00
2006,11,25,11,04,3.10
2006,11,25,11,05,3.10
2006,11,25,11,06,3.10
2006,11,25,11,07,3.10
2006,11,25,11,08,3.10
2006,11,25,11,09,3.10
2006,11,25,11,10,3.10
2006,11,25,11,11,3.10
2006,11,25,11,12,3.10
2006,11,25,11,13,3.10
2006,11,25,11,14,3.10
2006,11,25,11,15,3.10
2006,11,25,11,16,3.10
2006,11,25,11,17,3.10
2006,11,25,11,18,3.10
2006,11,25,11,19,3.10
2006,11,25,11,20,3.10
2006,11,25,11,21,3.10
2006,11,25,11,22,3.10
2006,11,25,11,23,3.20
2006,11,25,11,24,3.20
2006,11,25,11,25,3.20
2006,11,25,11,26,3.20
2006,11,25,11,27,3.20
2006,11,25,11,28,3.20
2006,11,25,11,29,3.20
2006,11,25,11,30,3.30
2006,11,25,11,31,3.30
2006,11,25,11,32,3.30
2006,11,25,11,33,3.30
2006,11,25,11,34,3.30
2006,11,25,11,35,3.30
2006,11,25,11,36,3.20
2006,11,25,11,37,3.20
2006,11,25,11,38,3.20
2006,11,25,11,39,3.20
2006,11,25,11,40,3.20
2006,11,25,11,41,3.20
2006,11,25,11,42,3.20
2006,11,25,11,43,3.20
2006,11,25,11,44,3.20
2006,11,25,11,45,3.20
2006,11,25,11,46,3.20
2006,11,25,11,47,3.30
2006,11,25,11,48,3.30
2006,11,25,11,49,3.20
2006,11,25,11,50,3.20
2006,11,25,11,51,3.20
2006,11,25,11,52,3.20
2006,11,25,11,53,3.30
2006,11,25,11,54,3.30
2006,11,25,11,55,3.30
2006,11,25,11,56,3.30
2006,11,25,11,57,3.30
2006,11,25,11,58,3.30
2006,11,25,11,59,3.30
2006,11,25,12,00,3.30
2006,11,25,12,01,3.30
2006,11,25,12,02,3.30
2006,11,25,12,03,3.40
2006,11,25,12,04,3.40
2006,11,25,12,05,3.40
2006,11,25,12,06,3.40
2006,11,25,12,07,3.40
2006,11,25,12,08,3.40
2006,11,25,12,09,3.40
2006,11,25,12,10,3.50
2006,11,25,12,11,3.50
2006,11,25,12,12,3.50
2006,11,25,12,13,3.50
2006,11,25,12,14,3.60
2006,11,25,12,15,3.60
2006,11,25,12,16,3.60
2006,11,25,12,17,3.70
2006,11,25,12,18,3.70
2006,11,25,12,19,3.70
2006,11,25,12,20,3.70
2006,11,25,12,21,3.80
2006,11,25,12,22,3.80
2006,11,25,12,23,3.80
2006,11,25,12,24,3.80
2006,11,25,12,25,3.80
2006,11,25,12,26,3.80
2006,11,25,12,27,3.80
2006,11,25,12,28,3.80
2006,11,25,12,29,3.80
2006,11,25,12,30,3.80
2006,11,25,12,31,3.80
2006,11,25,12,32,3.80
2006,11,25,12,33,3.80
2006,11,25,12,34,3.80
2006,11,25,12,35,3.80
2006,11,25,12,36,3.90
2006,11,25,12,37,3.90
2006,11,25,12,38,3.90
2006,11,25,12,39,3.90
2006,11,25,12,40,3.90
2006,11,25,12,41,3.90
2006,11,25,12,42,3.90
2006,11,25,12,43,3.90
2006,11,25,12,44,4.00
2006,11,25,12,45,4.00
2006,11,25,12,46,4.00
2006,11,25,12,47,4.00
2006,11,25,12,48,4.00
2006,11,25,12,49,4.10
2006,11,25,12,50,4.10
2006,11,25,12,51,4.10
2006,11,25,12,52,4.20
2006,11,25,12,53,4.20
2006,11,25,12,54,4.20
2006,11,25,12,55,4.20
2006,11,25,12,56,4.20
2006,11,25,12,57,4.20
2006,11,25,12,58,4.20
2006,11,25,12,59,4.30
2006,11,25,13,00,4.30
2006,11,25,13,01,4.30
2006,11,25,13,02,4.40
2006,11,25,13,03,4.40
2006,11,25,13,04,4.40
2006,11,25,13,05,4.40
2006,11,25,13,06,4.50
2006,11,25,13,07,4.50
2006,11,25,13,08,4.50
2006,11,25,13,09,4.50
2006,11,25,13,10,4.40
2006,11,25,13,11,4.40
2006,11,25,13,12,4.40
2006,11,25,13,13,4.40
2006,11,25,13,14,4.40
2006,11,25,13,15,4.50
2006,11,25,13,16,4.50
2006,11,25,13,17,4.50
2006,11,25,13,18,4.60
2006,11,25,13,19,4.60
2006,11,25,13,20,4.60
2006,11,25,13,21,4.60
2006,11,25,13,22,4.60
2006,11,25,13,23,4.60
2006,11,25,13,24,4.60
2006,11,25,13,25,4.60
2006,11,25,13,26,4.60
2006,11,25,13,27,4.70
2006,11,25,13,28,4.70
2006,11,25,13,29,4.70
2006,11,25,13,30,4.70
2006,11,25,13,31,4.70
2006,11,25,13,32,4.80
2006,11,25,13,33,4.80
2006,11,25,13,34,4.80
2006,11,25,13,35,4.80
2006,11,25,13,36,4.90
2006,11,25,13,37,4.90
2006,11,25,13,38,4.90
2006,11,25,13,39,4.90
2006,11,25,13,40,4.90
2006,11,25,13,41,4.80
2006,11,25,13,42,4.80
2006,11,25,13,43,4.80
2006,11,25,13,44,4.80
2006,11,25,13,45,4.80
2006,11,25,13,46,4.80
2006,11,25,13,47,4.80
2006,11,25,13,48,4.80
2006,11,25,13,49,4.80
2006,11,25,13,50,4.80
2006,11,25,13,51,4.70
2006,11,25,13,52,4.70
2006,11,25,13,53,4.70
2006,11,25,13,54,4.70
2006,11,25,13,55,4.70
2006,11,25,13,56,4.70
2006,11,25,13,57,4.70
2006,11,25,13,58,4.70
2006,11,25,13,59,4.70
2006,11,25,14,00,4.70
2006,11,25,14,01,4.70
2006,11,25,14,02,4.70
2006,11,25,14,03,4.70
2006,11,25,14,04,4.70
2006,11,25,14,05,4.70
2006,11,25,14,06,4.70
2006,11,25,14,07,4.70
2006,11,25,14,08,4.70
2006,11,25,14,09,4.70
2006,11,25,14,10,4.70
2006,11,25,14,11,4.70
2006,11,25,14,12,4.70
2006,11,25,14,13,4.60
2006,11,25,14,14,4.60
2006,11,25,14,15,4.50
2006,11,25,14,16,4.40
2006,11,25,14,17,4.40
2006,11,25,14,18,4.30
2006,11,25,14,19,4.20
2006,11,25,14,20,4.20
2006,11,25,14,21,4.10
2006,11,25,14,22,4.10
2006,11,25,14,23,4.10
2006,11,25,14,24,4.00
2006,11,25,14,25,4.00
2006,11,25,14,26,4.00
2006,11,25,14,27,4.00
2006,11,25,14,28,4.00
2006,11,25,14,29,4.00
2006,11,25,14,30,4.00
2006,11,25,14,31,4.00
2006,11,25,14,32,4.00
2006,11,25,14,33,3.90
2006,11,25,14,34,3.90
2006,11,25,14,35,3.90
2006,11,25,14,36,3.80
2006,11,25,14,37,3.80
2006,11,25,14,38,3.80
2006,11,25,14,39,3.80
2006,11,25,14,40,3.70
2006,11,25,14,41,3.70
2006,11,25,14,42,3.60
2006,11,25,14,43,3.60
2006,11,25,14,44,3.50
2006,11,25,14,45,3.50
2006,11,25,14,46,3.50
2006,11,25,14,47,3.40
2006,11,25,14,48,3.40
2006,11,25,14,49,3.30
2006,11,25,14,50,3.30
2006,11,25,14,51,3.30
2006,11,25,14,52,3.30
2006,11,25,14,53,3.30
2006,11,25,14,54,3.30
2006,11,25,14,55,3.30
2006,11,25,14,56,3.30
2006,11,25,14,57,3.30
2006,11,25,14,58,3.30
2006,11,25,14,59,3.20
2006,11,25,15,00,3.20
2006,11,25,15,01,3.20
2006,11,25,15,02,3.20
2006,11,25,15,03,3.10
2006,11,25,15,04,3.10
2006,11,25,15,05,3.10
2006,11,25,15,06,3.00
2006,11,25,15,07,2.90
2006,11,25,15,08,2.90
2006,11,25,15,09,2.90
2006,11,25,15,10,2.90
2006,11,25,15,11,2.80
2006,11,25,15,12,2.80
2006,11,25,15,13,2.80
2006,11,25,15,14,2.70
2006,11,25,15,15,2.70
2006,11,25,15,16,2.70
2006,11,25,15,17,2.70
2006,11,25,15,18,2.70
2006,11,25,15,19,2.70
2006,11,25,15,20,2.70
2006,11,25,15,21,2.70
2006,11,25,15,22,2.70
2006,11,25,15,23,2.60
2006,11,25,15,24,2.60
2006,11,25,15,25,2.60
2006,11,25,15,26,2.50
2006,11,25,15,27,2.50
2006,11,25,15,28,2.50
2006,11,25,15,29,2.40
2006,11,25,15,30,2.40
2006,11,25,15,31,2.40
2006,11,25,15,32,2.40
2006,11,25,15,33,2.30
2006,11,25,15,34,2.30
2006,11,25,15,35,2.30
2006,11,25,15,36,2.30
2006,11,25,15,37,2.30
2006,11,25,15,38,2.30
2006,11,25,15,39,2.30
2006,11,25,15,40,2.30
2006,11,25,15,41,2.30
2006,11,25,15,42,2.30
2006,11,25,15,43,2.30
2006,11,25,15,44,2.30
2006,11,25,15,45,2.20
2006,11,25,15,46,2.20
2006,11,25,15,47,2.20
2006,11,25,15,48,2.20
2006,11,25,15,49,2.20
2006,11,25,15,50,2.20
2006,11,25,15,51,2.20
2006,11,25,15,52,2.10
2006,11,25,15,53,2.10
2006,11,25,15,54,2.10
2006,11,25,15,55,2.10
2006,11,25,15,56,2.10
2006,11,25,15,57,2.10
2006,11,25,15,58,2.10
2006,11,25,15,59,2.10
2006,11,25,16,00,2.10
2006,11,25,16,01,2.10
2006,11,25,16,02,2.10
2006,11,25,16,03,2.10
2006,11,25,16,04,2.10
2006,11,25,16,05,2.10
2006,11,25,16,06,2.10
2006,11,25,16,07,2.10
2006,11,25,16,08,2.00
2006,11,25,16,09,2.00
2006,11,25,16,10,2.00
2006,11,25,16,11,2.00
2006,11,25,16,12,2.00
2006,11,25,16,13,2.00
2006,11,25,16,14,1.90
2006,11,25,16,15,1.90
2006,11,25,16,16,1.80
2006,11,25,16,17,1.80
2006,11,25,16,18,1.70
2006,11,25,16,19,1.60
2006,11,25,16,20,1.60
2006,11,25,16,21,1.50
2006,11,25,16,22,1.50
2006,11,25,16,23,1.50
2006,11,25,16,24,1.50
2006,11,25,16,25,1.50
2006,11,25,16,26,1.50
2006,11,25,16,27,1.50
2006,11,25,16,28,1.50
2006,11,25,16,29,1.60
2006,11,25,16,30,1.60
2006,11,25,16,31,1.70
2006,11,25,16,32,1.70
2006,11,25,16,33,1.70
2006,11,25,16,34,1.80
2006,11,25,16,35,1.80
2006,11,25,16,36,1.80
2006,11,25,16,37,1.80
2006,11,25,16,38,1.80
2006,11,25,16,39,1.90
2006,11,25,16,40,1.90
2006,11,25,16,41,1.90
2006,11,25,16,42,1.90
2006,11,25,16,43,1.90
2006,11,25,16,44,1.90
2006,11,25,16,45,2.00
2006,11,25,16,46,2.00
2006,11,25,16,47,2.00
2006,11,25,16,48,2.00
2006,11,25,16,49,2.00
2006,11,25,16,50,2.00
2006,11,25,16,51,2.00
2006,11,25,16,52,2.00
2006,11,25,16,53,2.00
2006,11,25,16,54,2.00
2006,11,25,16,55,2.00
2006,11,25,16,56,2.00
2006,11,25,16,57,2.00
2006,11,25,16,58,2.00
2006,11,25,16,59,2.00
2006,11,25,17,00,2.00
2006,11,25,17,01,2.00
2006,11,25,17,02,2.00
2006,11,25,17,03,2.10
2006,11,25,17,04,2.10
2006,11,25,17,05,2.10
2006,11,25,17,06,2.10
2006,11,25,17,07,2.10
2006,11,25,17,08,2.10
2006,11,25,17,09,2.10
2006,11,25,17,10,2.10
2006,11,25,17,11,2.10
2006,11,25,17,12,2.10
2006,11,25,17,13,2.10
2006,11,25,17,14,2.00
2006,11,25,17,15,2.00
2006,11,25,17,16,2.00
2006,11,25,17,17,2.00
2006,11,25,17,18,1.90
2006,11,25,17,19,1.90
2006,11,25,17,20,1.90
2006,11,25,17,21,1.80
2006,11,25,17,22,1.80
2006,11,25,17,23,1.80
2006,11,25,17,24,1.80
2006,11,25,17,25,1.80
2006,11,25,17,26,1.80
2006,11,25,17,27,1.80
2006,11,25,17,28,1.80
2006,11,25,17,29,1.80
2006,11,25,17,30,1.80
2006,11,25,17,31,1.80
2006,11,25,17,32,1.80
2006,11,25,17,33,1.80
2006,11,25,17,34,1.80
2006,11,25,17,35,1.80
2006,11,25,17,36,1.80
2006,11,25,17,37,1.80
2006,11,25,17,38,1.80
2006,11,25,17,39,1.80
2006,11,25,17,40,1.80
2006,11,25,17,41,1.80
2006,11,25,17,42,1.80
2006,11,25,17,43,1.80
2006,11,25,17,44,1.80
2006,11,25,17,45,1.80
2006,11,25,17,46,1.90
2006,11,25,17,47,1.90
2006,11,25,17,48,1.90
2006,11,25,17,49,1.90
2006,11,25,17,50,1.90
2006,11,25,17,51,1.90
2006,11,25,17,52,1.90
2006,11,25,17,53,1.90
2006,11,25,17,54,1.90
2006,11,25,17,55,1.90
2006,11,25,17,56,1.90
2006,11,25,17,57,1.90
2006,11,25,17,58,1.90
2006,11,25,17,59,1.90
2006,11,25,18,00,1.90